Vorticity
9 5 3 4 2 6 3 1 6 6 4 3 -3 1 1 4 26 24 15 9 2 7 3 10 15 36 28 32 5 16 28 57 -0 8 5 31 6 23 7 9 -4 20 10 11 14 26 4
6 8 4 7 1 4 1 6 7 3 5 5 3 1 2 5 26 24 14 8 1 7 6 11 20 29 27 21 13 10 16 41 -16 20 21 8 33 12 5 6 4 2 -7 14 26 8 20
5 8 4 6 -2 0 3 4 4 4 2 3 2 1 2 5 20 30 14 13 5 6 11 7 24 30 17 27 15 2 21 33 14 20 10 18 13 43 11 0 2 7 -1 1 10 19 23
3 6 6 2 3 2 3 4 8 5 1 -0 1 -1 2 7 28 26 19 13 -7 3 14 5 26 34 10 28 13 11 24 29 -3 10 9 29 17 3 3 7 10 9 -3 -12 1 25 15
9 5 9 5 3 2 2 5 9 3 -0 2 -0 0 0 6 24 25 21 9 -1 4 14 6 32 35 5 19 13 13 40 23 22 -3 10 25 -8 43 15 4 3 8 4 2 7 -11 18
7 5 8 6 5 5 2 8 10 3 1 3 1 0 0 7 16 30 22 7 1 5 13 7 25 31 19 19 11 10 50 -10 16 -4 19 6 9 43 18 8 6 -3 11 18 7 1 11
6 6 7 7 4 4 8 5 6 1 2 2 1 0 -0 3 10 29 26 6 3 7 12 7 14 31 10 10 13 13 51 -4 16 -6 17 13 23 -3 18 3 7 -1 -4 12 11 7 13
7 7 8 5 8 5 4 1 8 2 3 1 2 1 1 2 8 32 30 12 4 6 13 18 1 39 21 8 12 24 47 -5 25 -2 21 4 11 14 21 7 6 1 0 8 18 7 12
7 8 8 5 7 5 0 4 4 2 5 2 2 1 2 3 6 31 34 11 4 5 15 18 5 33 30 37 15 -5 67 -10 14 12 -2 7 19 32 23 -4 11 5 4 -8 -2 19 14
7 9 7 4 5 3 1 3 2 7 5 3 2 1 2 3 12 26 35 10 3 3 13 13 17 24 30 23 -2 11 51 10 21 3 27 13 -25 -6 8 28 -9 8 5 3 7 -2 11
7 9 6 3 4 1 2 9 4 9 3 4 3 2 2 -0 4 21 36 11 3 4 12 5 12 41 7 12 2 31 34 21 26 12 27 21 15 27 17 27 10 6 4 5 7 11 6
6 10 8 4 1 2 2 6 4 12 5 5 3 2 4 -0 3 15 45 21 4 5 11 2 36 31 -3 6 12 53 15 9 25 9 28 -10 -8 12 29 8 17 1 7 4 7 8 9
5 10 7 6 3 2 6 2 6 14 7 4 2 1 5 -0 1 13 40 28 11 6 14 4 17 37 50 25 -5 40 2 15 17 -6 11 -50 8 16 10 18 21 3 4 7 5 13 13
5 9 6 6 3 1 6 4 10 15 5 1 1 1 4 2 1 8 35 24 20 -4 14 3 3 -9 30 40 0 36 -1 21 15 -1 12 -33 1 17 7 14 14 15 7 2 2 4 1
6 7 10 6 4 3 8 8 11 9 5 2 3 1 2 3 -0 6 32 30 22 8 7 8 0 -8 -17 17 38 39 19 7 11 2 29 -5 -2 -4 20 13 12 17 11 4 4 0 -4
7 7 7 9 3 5 9 8 8 4 6 4 7 2 2 5 -1 3 26 31 29 11 2 14 0 3 12 -0 16 21 14 7 6 5 25 -1 -8 13 13 7 1 12 11 6 4 5 4
5 5 6 10 6 7 5 0 4 7 8 4 8 4 3 5 2 0 13 32 39 17 6 7 18 -0 -4 2 2 2 29 16 6 6 26 11 -7 -4 6 10 18 15 9 13 9 7 4
-2 7 4 12 7 5 3 -1 7 8 8 4 2 5 5 3 4 3 10 27 43 25 8 2 7 16 5 2 0 2 6 13 9 30 8 8 -10 8 1 10 2 1 13 10 16 13 11
-0 10 6 13 8 2 2 -5 2 3 5 6 3 3 5 5 5 4 7 15 45 34 15 8 3 8 10 11 9 6 8 14 4 22 21 1 -1 8 5 8 9 9 12 19 9 9 7
5 10 2 14 9 3 -3 -2 3 2 1 -2 2 2 4 4 4 5 9 12 29 24 32 12 3 2 4 6 13 10 1 11 16 5 -0 22 23 19 11 3 1 3 8 6 10 11 5
4 -2 7 18 6 -8 5 3 -2 2 -1 -1 4 5 3 3 4 6 7 10 19 25 32 23 8 2 3 3 6 9 13 5 21 10 21 2 10 4 5 -1 2 10 10 5 6 1 14
2 -0 14 18 7 -3 -4 7 8 4 -2 3 3 5 2 5 4 7 9 7 13 21 26 32 18 12 1 3 3 5 7 11 10 10 17 8 7 8 9 4 -1 2 6 7 7 3 8
-4 5 12 18 -3 -2 -0 8 3 12 7 3 9 9 4 4 3 8 8 6 6 24 34 16 36 15 15 4 2 3 4 6 8 12 10 7 11 11 8 8 13 2 6 3 7 18 22
2 9 8 -7 34 -8 -2 0 -3 8 9 8 11 7 6 4 4 6 8 7 8 14 32 18 8 31 10 12 11 4 3 4 6 7 9 10 10 12 13 8 9 10 15 13 14 16 14
17 8 -9 3 0 14 14 4 -4 9 3 5 7 13 6 6 3 5 10 8 7 8 28 27 18 11 26 8 9 12 9 7 8 7 9 12 9 9 10 11 9 13 11 11 11 13 12
0 0 2 0 3 0 -2 1 -6 0 -3 -1 2 20 8 8 5 5 8 5 7 4 20 21 21 14 13 20 7 13 4 6 6 6 8 7 10 11 9 9 11 13 15 13 11 11 10
1 15 -1 1 1 1 -2 13 -7 -3 0 -3 -6 22 11 9 5 6 7 8 8 5 11 19 23 23 12 14 18 9 15 12 4 5 7 5 6 7 6 7 10 9 8 9 10 11 11
-1 13 3 6 6 7 1 3 -0 -2 -2 5 -3 21 15 4 4 7 5 10 6 7 8 11 16 21 26 13 13 21 9 11 16 8 9 7 7 7 9 8 5 10 10 7 8 9 12
-2 2 9 3 13 1 3 5 0 5 8 4 6 20 11 3 9 7 6 9 8 8 9 10 11 23 27 22 14 13 14 9 6 14 15 9 8 7 7 8 6 10 11 11 14 13 11
Height
5820 5817 5813 5810 5806 5801 5796 5790 5782 5773 5762 5752 5740 5726 5712 5697 5682 5669 5659 5652 5643 5633 5622 5608 5594 5583 5578 5579 5582 5585 5589 5597 5610 5622 5635 5647 5659 5668 5680 5694 5707 5718 5724 5730 5735 5743 5752
5815 5813 5810 5806 5802 5797 5791 5785 5778 5769 5758 5749 5737 5724 5710 5694 5680 5665 5656 5647 5639 5628 5616 5603 5589 5579 5575 5575 5578 5582 5585 5591 5604 5616 5629 5641 5651 5661 5674 5688 5700 5711 5717 5724 5733 5740 5748
5810 5808 5806 5803 5798 5793 5787 5781 5775 5765 5755 5745 5734 5722 5707 5692 5676 5662 5652 5643 5635 5623 5612 5600 5587 5577 5573 5573 5575 5578 5580 5586 5599 5613 5625 5634 5647 5656 5670 5682 5693 5702 5712 5719 5726 5734 5741
5804 5803 5801 5798 5794 5790 5784 5777 5771 5761 5752 5743 5732 5718 5704 5690 5673 5659 5649 5641 5631 5619 5609 5597 5585 5576 5572 5570 5572 5574 5576 5582 5594 5609 5620 5632 5647 5654 5664 5678 5688 5698 5706 5713 5721 5728 5736
5798 5797 5796 5793 5790 5786 5780 5774 5767 5758 5748 5739 5728 5716 5702 5687 5672 5658 5648 5638 5629 5618 5607 5596 5585 5576 5572 5570 5571 5572 5574 5581 5592 5606 5617 5629 5638 5648 5661 5672 5683 5691 5702 5711 5716 5725 5731
5794 5792 5790 5788 5785 5782 5776 5771 5763 5755 5746 5736 5726 5714 5700 5686 5671 5656 5645 5637 5628 5618 5606 5595 5584 5578 5573 5570 5571 5572 5574 5581 5590 5605 5614 5627 5637 5643 5655 5667 5680 5691 5699 5704 5713 5721 5729
5788 5787 5785 5783 5780 5777 5773 5767 5760 5752 5743 5734 5724 5713 5700 5685 5669 5655 5644 5637 5630 5618 5605 5595 5584 5574 5572 5571 5571 5573 5573 5580 5590 5603 5614 5626 5636 5646 5657 5668 5675 5687 5695 5701 5710 5718 5723
5783 5782 5780 5778 5775 5773 5769 5764 5758 5749 5741 5732 5722 5711 5699 5684 5670 5656 5644 5637 5629 5621 5606 5595 5584 5574 5571 5570 5569 5571 5575 5582 5590 5604 5615 5626 5636 5646 5655 5665 5676 5685 5692 5699 5706 5713 5718
5777 5776 5776 5773 5770 5768 5765 5760 5754 5747 5738 5730 5721 5710 5698 5685 5671 5657 5644 5637 5630 5620 5609 5597 5586 5576 5572 5570 5569 5571 5576 5582 5593 5608 5619 5629 5639 5646 5655 5665 5674 5684 5692 5698 5705 5710 5715
5770 5770 5770 5768 5765 5764 5761 5756 5751 5744 5736 5728 5719 5710 5697 5684 5672 5656 5645 5636 5632 5622 5612 5602 5590 5581 5577 5575 5575 5575 5576 5587 5597 5611 5621 5631 5640 5649 5656 5665 5674 5683 5690 5697 5703 5708 5713
5764 5763 5764 5762 5760 5759 5757 5753 5748 5741 5733 5726 5718 5708 5698 5683 5671 5658 5645 5638 5633 5625 5616 5605 5594 5588 5585 5584 5582 5580 5581 5593 5604 5615 5627 5637 5644 5651 5657 5664 5674 5682 5689 5696 5702 5705 5709
5758 5758 5758 5757 5755 5754 5752 5749 5744 5738 5731 5723 5716 5708 5697 5685 5671 5659 5645 5639 5635 5630 5621 5613 5601 5593 5592 5591 5589 5589 5593 5602 5610 5621 5630 5639 5646 5651 5657 5664 5672 5681 5689 5695 5700 5702 5706
5751 5752 5752 5752 5750 5748 5748 5745 5741 5735 5728 5721 5714 5707 5697 5686 5674 5659 5647 5642 5638 5632 5627 5620 5611 5600 5594 5596 5597 5599 5602 5608 5615 5625 5632 5641 5646 5653 5658 5665 5672 5679 5687 5693 5698 5700 5702
5744 5745 5747 5746 5745 5744 5743 5741 5738 5731 5725 5718 5711 5706 5696 5686 5674 5661 5650 5642 5638 5633 5629 5625 5619 5611 5605 5602 5604 5607 5609 5616 5622 5629 5635 5642 5650 5654 5660 5666 5674 5679 5686 5691 5695 5697 5700
5737 5738 5740 5741 5741 5739 5739 5737 5734 5728 5722 5715 5709 5704 5695 5687 5675 5663 5653 5643 5639 5636 5633 5630 5626 5622 5616 5615 5613 5613 5620 5625 5629 5634 5640 5646 5652 5656 5660 5667 5673 5677 5682 5688 5692 5694 5699
5729 5731 5733 5735 5736 5734 5735 5733 5730 5725 5719 5712 5708 5703 5694 5687 5676 5665 5654 5645 5640 5638 5636 5634 5631 5628 5627 5624 5625 5627 5630 5634 5638 5640 5643 5650 5655 5658 5662 5667 5672 5675 5681 5685 5688 5691 5695
5721 5724 5726 5728 5729 5730 5730 5729 5726 5721 5716 5710 5706 5701 5694 5687 5678 5669 5658 5648 5640 5638 5638 5637 5635 5633 5632 5632 5633 5634 5636 5640 5642 5644 5647 5652 5657 5661 5662 5665 5670 5674 5677 5681 5684 5687 5690
5714 5717 5719 5721 5723 5725 5725 5724 5721 5717 5713 5708 5704 5700 5693 5687 5679 5670 5660 5650 5640 5638 5638 5637 5636 5636 5636 5636 5636 5638 5640 5641 5643 5645 5648 5652 5656 5659 5663 5666 5669 5672 5675 5677 5680 5684 5685
5706 5709 5712 5713 5716 5719 5720 5719 5717 5713 5709 5705 5701 5697 5692 5686 5679 5672 5663 5654 5643 5638 5637 5637 5638 5638 5638 5638 5639 5639 5641 5643 5644 5646 5649 5652 5655 5658 5661 5666 5667 5669 5672 5674 5677 5679 5681
5697 5701 5705 5706 5710 5713 5715 5714 5712 5710 5706 5702 5698 5696 5691 5684 5678 5672 5664 5654 5644 5639 5637 5637 5638 5639 5639 5639 5640 5640 5641 5643 5645 5646 5647 5649 5651 5656 5660 5663 5665 5667 5669 5670 5671 5672 5675
5689 5694 5697 5699 5703 5707 5709 5709 5707 5706 5701 5699 5696 5693 5689 5683 5677 5672 5665 5655 5646 5640 5637 5636 5638 5639 5640 5641 5640 5641 5642 5642 5644 5646 5648 5650 5652 5655 5657 5659 5661 5663 5664 5666 5667 5668 5669
5682 5686 5690 5693 5697 5700 5702 5702 5702 5701 5698 5696 5693 5689 5686 5681 5676 5671 5664 5656 5647 5640 5637 5636 5636 5638 5640 5641 5642 5642 5642 5642 5644 5645 5646 5648 5649 5650 5652 5655 5656 5658 5659 5660 5662 5663 5663
5674 5679 5684 5687 5690 5693 5695 5695 5697 5696 5694 5692 5688 5686 5683 5679 5675 5670 5665 5658 5648 5640 5637 5635 5635 5636 5636 5638 5639 5640 5641 5642 5643 5643 5644 5645 5646 5647 5649 5649 5651 5653 5654 5654 5655 5656 5657
5666 5671 5676 5681 5684 5687 5689 5690 5691 5692 5689 5688 5685 5683 5680 5676 5672 5668 5663 5658 5650 5641 5636 5634 5633 5632 5632 5633 5635 5637 5638 5638 5639 5640 5642 5643 5643 5644 5645 5645 5645 5648 5647 5647 5647 5648 5648
5657 5663 5669 5674 5678 5681 5683 5684 5686 5687 5685 5684 5682 5680 5676 5673 5669 5665 5661 5657 5650 5641 5636 5632 5630 5629 5630 5631 5633 5633 5634 5635 5636 5637 5638 5638 5639 5639 5640 5641 5641 5641 5641 5640 5640 5641 5640
5649 5656 5662 5667 5671 5674 5676 5678 5681 5681 5681 5680 5679 5675 5673 5671 5667 5662 5658 5655 5649 5642 5635 5631 5627 5626 5627 5626 5627 5626 5629 5631 5631 5633 5633 5633 5634 5635 5636 5636 5636 5637 5636 5635 5635 5635 5635
5642 5648 5654 5660 5664 5667 5670 5672 5675 5676 5676 5676 5675 5672 5669 5667 5664 5660 5655 5652 5647 5641 5634 5628 5625 5623 5623 5622 5622 5624 5625 5626 5627 5628 5629 5628 5628 5629 5629 5629 5631 5630 5630 5630 5629 5632 5629
5634 5641 5647 5652 5657 5661 5663 5666 5669 5671 5671 5671 5671 5667 5666 5663 5660 5657 5654 5651 5646 5640 5634 5629 5623 5619 5617 5617 5618 5619 5620 5621 5622 5622 5622 5622 5622 5623 5623 5623 5625 5624 5624 5624 5624 5622 5622
5626 5634 5640 5645 5650 5654 5657 5660 5663 5665 5666 5666 5664 5663 5661 5660 5657 5654 5651 5648 5643 5637 5632 5627 5622 5615 5613 5613 5614 5613 5614 5614 5614 5615 5615 5616 5616 5617 5617 5616 5616 5617 5617 5617 5616 5616 5615